Brownwood, TX

9:11 AM CST on February 07, 2016 (GMT -0600)
Brownwood Regional

Weather History for KBWD - November, 2012

Change the Weather History Date:

Monday, November 26, 2012

  Actual Average (KABI) Record (KABI)
Temperature  
Mean Temperature 59 °F 50 °F  
Max Temperature 77 °F 62 °F 86 °F (1965)
Min Temperature 41 °F 39 °F 16 °F (1993)
Degree Days  
Heating Degree Days 6 15  
Month to date heating degree days 266  
Since 1 July heating degree days 370  
Cooling Degree Days 0 0  
Month to date cooling degree days 15  
Year to date cooling degree days 2404  
Growing Degree Days 9 (Base 50)    
Moisture  
Dew Point 42 °F    
Average Humidity 61    
Maximum Humidity 100    
Minimum Humidity 20    
Precipitation  
Precipitation 0.00 in 0.04 in 2.14 in (1888)
Month to date precipitation 1.26  
Year to date precipitation 23.44  
Sea Level Pressure  
Sea Level Pressure 30.03 in    
Wind  
Wind Speed 7 mph (NNW)    
Max Wind Speed 20 mph    
Max Gust Speed 28 mph    
Visibility 8 miles    
Events Fog    
T = Trace of Precipitation, MM = Missing Value Source: NWS Daily Summary

Daily Weather History Graph

Daily Weather History Graph

Search for Another Location

Airport or City:

Trip Planner

Search our weather history database for the weather conditions in past years. The results will help you decide how hot, cold, wet, or windy it might be!

Date:

Astronomy

Nov. 26, 2012 Rise Set
Actual Time 7:14 AM CST 5:32 PM CST
Civil Twilight 6:47 AM CST 5:58 PM CST
Nautical Twilight 6:17 AM CST 6:28 PM CST
Astronomical Twilight 5:48 AM CST 6:57 PM CST
Moon 4:22 PM CST (11/26) 5:29 AM CST (11/26)
Length of Visible Light 11h 10m
Length of Day
10h 17m
Waxing Gibbous, 97% of the Moon is Illuminated
Nov 26
Waxing Gibbous
Nov 28
Full
Dec 6
Last Quarter
Dec 13
New
Dec 19
First Quarter

Hourly Weather History & Observations

Time (CST) Temp. Windchill Dew Point Humidity Pressure Visibility Wind Dir Wind Speed Gust Speed Precip Events Conditions
12:15 AM 55.4 °F - 50.0 °F 82% 29.91 in 10.0 mi SE 4.6 mph - N/A   Clear
12:55 AM 55.4 °F - 50.0 °F 82% 29.91 in 10.0 mi ESE 5.8 mph - N/A   Clear
1:15 AM 55.4 °F - 51.8 °F 88% 29.90 in 10.0 mi SE 6.9 mph - N/A   Clear
1:35 AM 55.4 °F - 51.8 °F 88% 29.90 in 10.0 mi SSE 4.6 mph - N/A   Clear
1:55 AM 53.6 °F - 50.0 °F 88% 29.90 in 10.0 mi East 4.6 mph - N/A   Clear
2:15 AM 53.6 °F - 50.0 °F 88% 29.90 in 10.0 mi SE 6.9 mph - N/A   Clear
2:35 AM 51.8 °F - 50.0 °F 94% 29.90 in 10.0 mi SE 3.5 mph - N/A   Clear
2:55 AM 53.6 °F - 51.8 °F 94% 29.90 in 10.0 mi SE 3.5 mph - N/A   Clear
3:15 AM 53.6 °F - 51.8 °F 94% 29.90 in 8.0 mi Calm Calm - N/A   Clear
3:35 AM 48.2 °F - 48.2 °F 100% 29.90 in 3.0 mi Calm Calm - N/A   Clear
3:55 AM 46.4 °F - 46.4 °F 100% 29.90 in 0.2 mi Calm Calm - N/A Fog Fog
4:15 AM 46.4 °F - 46.4 °F 100% 29.91 in 6.0 mi Calm Calm - N/A   Clear
4:35 AM 44.6 °F - 44.6 °F 100% 29.91 in 2.0 mi Calm Calm - N/A   Mostly Cloudy
4:55 AM 44.6 °F - 42.8 °F 93% 29.91 in 0.2 mi Calm Calm - N/A Fog Fog
5:15 AM 44.6 °F - 42.8 °F 93% 29.91 in 0.2 mi Calm Calm - N/A Fog Fog
6:15 AM 42.8 °F - 42.8 °F 100% 29.94 in 0.2 mi Calm Calm - N/A Fog Fog
6:35 AM 41.0 °F 38.0 °F 41.0 °F 100% 29.94 in 0.2 mi SE 4.6 mph - N/A Fog Fog
6:55 AM 44.6 °F - 44.6 °F 100% 29.94 in 0.2 mi Calm Calm - N/A Fog Fog
7:15 AM 42.8 °F 41.1 °F 42.8 °F 100% 29.95 in 0.2 mi NW 3.5 mph - N/A   Overcast
7:55 AM 44.6 °F - 44.6 °F 100% 29.96 in 0.2 mi Calm Calm - N/A Fog Fog
8:15 AM 44.6 °F - 44.6 °F 100% 29.97 in 0.2 mi Calm Calm - N/A Fog Fog
8:35 AM 48.2 °F - 48.2 °F 100% 29.98 in 2.0 mi Calm Calm - N/A   Mostly Cloudy
8:55 AM 53.6 °F - 53.6 °F 100% 29.99 in 8.0 mi Calm Calm - N/A   Clear
9:15 AM 55.4 °F - 55.4 °F 100% 29.99 in 10.0 mi SSW 3.5 mph - N/A   Clear
9:55 AM 59.0 °F - 55.4 °F 88% 29.99 in 10.0 mi Calm Calm - N/A   Clear
10:15 AM 62.6 °F - 55.4 °F 77% 29.99 in 10.0 mi Calm Calm - N/A   Clear
10:35 AM 68.0 °F - 55.4 °F 64% 29.99 in 10.0 mi WSW 8.1 mph - N/A   Clear
10:55 AM 71.6 °F - 53.6 °F 53% 29.99 in 10.0 mi West 9.2 mph - N/A   Clear
11:15 AM 73.4 °F - 51.8 °F 47% 29.98 in 10.0 mi West 10.4 mph - N/A   Clear
11:35 AM 73.4 °F - 50.0 °F 44% 29.98 in 10.0 mi WNW 10.4 mph - N/A   Clear
11:55 AM 75.2 °F - 48.2 °F 38% 29.97 in 10.0 mi West 11.5 mph 16.1 mph N/A   Clear
12:15 PM 75.2 °F - 48.2 °F 38% 29.97 in 10.0 mi West 6.9 mph - N/A   Clear
12:35 PM 75.2 °F - 46.4 °F 36% 29.96 in 10.0 mi NW 6.9 mph - N/A   Clear
12:55 PM 77.0 °F - 46.4 °F 34% 29.95 in 10.0 mi NNW 10.4 mph - N/A   Clear
1:15 PM 77.0 °F - 44.6 °F 32% 29.95 in 10.0 mi North 11.5 mph - N/A   Clear
1:35 PM 77.0 °F - 42.8 °F 29% 29.95 in 10.0 mi WNW 11.5 mph 17.3 mph N/A   Clear
1:55 PM 77.0 °F - 41.0 °F 28% 29.95 in 10.0 mi NW 13.8 mph - N/A   Clear
2:15 PM 77.0 °F - 39.2 °F 26% 29.96 in 10.0 mi North 17.3 mph 23.0 mph N/A   Clear
2:35 PM 73.4 °F - 32.0 °F 22% 29.98 in 10.0 mi North 19.6 mph 24.2 mph N/A   Clear
2:55 PM 73.4 °F - 30.2 °F 20% 29.99 in 10.0 mi NNW 16.1 mph 23.0 mph N/A   Clear
3:15 PM 69.8 °F - 32.0 °F 25% 30.01 in 10.0 mi North 16.1 mph 23.0 mph N/A   Clear
3:35 PM 68.0 °F - 32.0 °F 26% 30.02 in 10.0 mi North 18.4 mph 24.2 mph N/A   Clear
3:55 PM 66.2 °F - 32.0 °F 28% 30.04 in 10.0 mi North 19.6 mph 25.3 mph N/A   Clear
4:15 PM 64.4 °F - 33.8 °F 32% 30.05 in 10.0 mi NNW 19.6 mph 25.3 mph N/A   Clear
4:35 PM 62.6 °F - 33.8 °F 34% 30.06 in 10.0 mi North 19.6 mph 25.3 mph N/A   Clear
4:55 PM 62.6 °F - 33.8 °F 34% 30.08 in 10.0 mi North 18.4 mph 21.9 mph N/A   Clear
5:15 PM 60.8 °F - 35.6 °F 39% 30.09 in 10.0 mi North 13.8 mph - N/A   Clear
5:35 PM 59.0 °F - 35.6 °F 42% 30.10 in 10.0 mi North 15.0 mph 20.7 mph N/A   Clear
5:55 PM 59.0 °F - 37.4 °F 45% 30.11 in 10.0 mi North 18.4 mph 26.5 mph N/A   Clear
6:15 PM 57.2 °F - 37.4 °F 48% 30.12 in 10.0 mi North 17.3 mph 27.6 mph N/A   Partly Cloudy
6:35 PM 57.2 °F - 37.4 °F 48% 30.13 in 10.0 mi North 16.1 mph 26.5 mph N/A   Partly Cloudy
6:55 PM 57.2 °F - 37.4 °F 48% 30.15 in 10.0 mi North 13.8 mph 21.9 mph N/A   Clear
7:15 PM 57.2 °F - 37.4 °F 48% 30.16 in 10.0 mi North 13.8 mph 18.4 mph N/A   Clear
7:35 PM 55.4 °F - 37.4 °F 51% 30.17 in 10.0 mi North 18.4 mph 26.5 mph N/A   Clear
7:55 PM 55.4 °F - 35.6 °F 47% 30.18 in 10.0 mi North 17.3 mph 26.5 mph N/A   Clear
8:15 PM 55.4 °F - 33.8 °F 44% 30.20 in 10.0 mi North 12.7 mph 21.9 mph N/A   Clear
8:35 PM 53.6 °F - 32.0 °F 44% 30.22 in 10.0 mi North 13.8 mph 19.6 mph N/A   Clear
8:55 PM 53.6 °F - 32.0 °F 44% 30.23 in 10.0 mi North 13.8 mph 20.7 mph N/A   Clear
9:15 PM 53.6 °F - 32.0 °F 44% 30.23 in 10.0 mi North 15.0 mph 23.0 mph N/A   Clear
9:35 PM 51.8 °F - 32.0 °F 47% 30.25 in 10.0 mi North 15.0 mph 23.0 mph N/A   Clear
9:55 PM 51.8 °F - 32.0 °F 47% 30.26 in 10.0 mi North 11.5 mph - N/A   Scattered Clouds
10:15 PM 50.0 °F - 32.0 °F 50% 30.27 in 10.0 mi North 13.8 mph 19.6 mph N/A   Scattered Clouds
10:35 PM 50.0 °F - 32.0 °F 50% 30.27 in 10.0 mi North 15.0 mph 19.6 mph N/A   Clear
10:55 PM 50.0 °F - 30.2 °F 47% 30.28 in 10.0 mi North 12.7 mph - N/A   Clear
11:15 PM 48.2 °F - 28.4 °F 46% 30.29 in 10.0 mi North 13.8 mph 19.6 mph N/A   Clear
11:35 PM 48.2 °F - 28.4 °F 46% 30.30 in 10.0 mi North 13.8 mph - N/A   Clear
11:55 PM 48.2 °F - 28.4 °F 46% 30.30 in 10.0 mi North 11.5 mph 17.3 mph N/A   Clear